STARLINK-32309

Last updated on Thu Nov 21 2024 00:02:05 GMT+0000 (Coordinated Universal Time)

1 61676U 24193R 24324.93251482 .00000852 00000+0 22869-4 0 9999 2 61676 53.1594 140.8645 0000781 84.4701 275.6398 15.50006217 3777
UTC large
Height (km)
Speed (km/s)
/
Latitude / Longitude
Inclination (degrees)
Orbital Period (minutes)
Azimuth
Elevation
Range (km)
Doppler Factor

Next 0 passes for location: London (51.5072 / 0.1276)

Sorry there are no passes over London.